This is the latest recevied weather packets stored in our database for station/object VR2MW-X. If no packets are shown the sender has not sent any weather packets the latest 10 day(s).
| Time | Temp. | Humidity | Pressure | Rain* | Wind** | Luminosity | Snow |
|---|---|---|---|---|---|---|---|
| 1777624044 | 25° C | 75% | 1012.5 hPa | - | - | - | - |
| 1777623433 | 25° C | 75% | 1012.5 hPa | - | - | - | - |
| 1777622820 | 25° C | 76% | 1012.6 hPa | - | - | - | - |
| 1777622210 | 25° C | 76% | 1012.6 hPa | - | - | - | - |
| 1777621599 | 25° C | 75% | 1012.7 hPa | - | - | - | - |
| 1777620988 | 25° C | 74% | 1012.8 hPa | - | - | - | - |
| 1777620376 | 25° C | 73% | 1012.7 hPa | - | - | - | - |
| 1777619766 | 25° C | 72% | 1012.7 hPa | - | - | - | - |
| 1777619155 | 25° C | 71% | 1013 hPa | - | - | - | - |
| 1777618545 | 26.11° C | 69% | 1013.1 hPa | - | - | - | - |
| 1777617934 | 26.11° C | 69% | 1013.2 hPa | - | - | - | - |
| 1777617324 | 26.11° C | 67% | 1013.3 hPa | - | - | - | - |
| 1777616712 | 26.11° C | 66% | 1013.3 hPa | - | - | - | - |
| 1777616100 | 26.11° C | 70% | 1013.3 hPa | - | - | - | - |
| 1777615489 | 25° C | 72% | 1013.6 hPa | - | - | - | - |
| 1777614879 | 25° C | 69% | 1013.7 hPa | - | - | - | - |
| 1777614268 | 25° C | 69% | 1014 hPa | - | - | - | - |
| 1777613658 | 25° C | 70% | 1014 hPa | - | - | - | - |
| 1777613046 | 25° C | 69% | 1014.1 hPa | - | - | - | - |
| 1777612435 | 25° C | 67% | 1014.1 hPa | - | - | - | - |
| 1777611825 | 26.11° C | 67% | 1014.1 hPa | - | - | - | - |
| 1777611214 | 26.11° C | 68% | 1014.5 hPa | - | - | - | - |
| 1777610604 | 26.11° C | 66% | 1014.6 hPa | - | - | - | - |
| 1777609993 | 26.11° C | 64% | 1014.6 hPa | - | - | - | - |
| 1777608772 | 27.22° C | 64% | 1014.8 hPa | - | - | - | - |
* Rain since midnight (hover to see other rain measurements)
** Current wind speed in m/s (hover to see current wind gust speed)